x

Tanner Bank - 121nm West Of San Diego, Ca (46047) Wave Buoy

4:50 - Tue 23rd May 2017 All times are PDT. -7 hours from GMT.

  • Sig Wave height 3.9ft
  • Peak Period 15s
  • Wind
    16mph, 20mph gusts
  • Sea Temp 60°f
  • Aire Temp 57°f
  • Sea Pressure 1014.2mb
  • Tanner Bank - 121nm West Of San Diego, Ca
  • Tanner Bank - 121nm West Of San Diego, Ca

More Historic Weather Station data

Upgrade to MSW Pro to gain access to the past 30 days of data for over 8000 Wavebouys and Weather Stations around the globe.

Join Pro

Comparision Forecast

View Surf forecast
   
mar 05/23 4:50 4ft 15s  -  16 20 mph 1014.2mb 60f 57f
3:50 4.5ft 14s 6s 16 20 mph 1014.8mb 60f 57f
2:50 3.5ft 14s 5s 16 18 mph 1015mb 60f 57f
1:50 4.5ft 14s 6s 16 18 mph 1015.1mb 60f 56f
12:50 4.5ft 15s 6s 13 16 mph 1015.6mb 60f 57f
11:50 4.5ft 15s 6s 16 18 mph 1016mb 60f 56f
10:50 4.5ft 15s 6s 13 16 mph 1015.5mb 60f 56f
9:50 4.5ft 15s 6s 16 18 mph 1015.6mb 60f 56f
8:50 4.5ft 15s 6s 13 16 mph 1015.7mb 60f 55f
7:50 4.5ft 15s 6s 11 13 mph 1015.5mb 60f 54f
6:50 4.5ft 15s 6s 13 18 mph 1014mb 60f 55f
5:50 4.5ft 15s 6s 13 16 mph 1014.1mb 60f 54f
4:50 4.5ft 14s 6s 9 13 mph 1014.4mb 60f 55f
3:50 4.5ft 15s 6s 11 13 mph 1014.6mb 60f 55f
2:50 4.5ft 15s 6s 11 18 mph 1014.7mb 60f 55f
1:50 5ft 16s 6s 13 18 mph 1014.6mb 60f 55f
12:50 4.5ft 15s 6s 13 18 mph 1015.1mb 60f 55f
lun 05/22 11:50 5ft 15s 6s 16 18 mph 1015.4mb 60f 55f
10:50 4.5ft 15s 6s 16 22 mph 1015.2mb 60f 56f
9:50 5ft 16s 6s 16 20 mph 1015.1mb 60f 56f
8:50 5ft 15s 6s 16 20 mph 1014.8mb 60f 56f
7:50 5.5ft 16s 7s 16 20 mph 1014.4mb 60f 56f
6:50 5ft 16s 6s 16 18 mph 1014.1mb 60f 56f
5:50 4.5ft 16s 6s 16 20 mph 1014.5mb 60f 56f
4:50 4.5ft 16s 6s 16 18 mph 1014.8mb 60f 56f
3:50 4.5ft 15s 6s 16 18 mph 1014.7mb 60f 56f
2:50 4.5ft 16s 6s 16 20 mph 1015.1mb 60f 56f
1:50 4.5ft 16s 6s 16 20 mph 1015.5mb 60f 57f
12:50 5ft 16s 6s 13 18 mph 1015.9mb 60f 56f
11:50 5ft 14s 6s 11 16 mph 1016.3mb 60f 56f
10:50 5ft 16s 6s 16 20 mph 1016mb 60f 56f
9:50 5.5ft 16s 6s 13 18 mph 1016.1mb 60f 55f
8:50 6ft 16s 6s 16 18 mph 1015.6mb 60f 55f
7:50 6ft 16s 6s 13 18 mph 1015.1mb 60f 54f
6:50 5.5ft 13s 6s 13 18 mph 1014.7mb 60f 54f
5:50 5ft 11s 6s 13 16 mph 1014mb 60f 55f
4:50 5ft 15s 6s 16 18 mph 1013.5mb 60f 54f
3:50 5ft 14s 6s 13 18 mph 1013.7mb 60f 55f
2:50 4.5ft 12s 6s 13 18 mph 1014.1mb 60f 55f
1:50 4.5ft 17s 6s 13 16 mph 1014.6mb 60f 55f
12:50 5ft 15s 6s 13 18 mph 1014.6mb 60f 55f
dom 05/21 11:50 4.5ft 14s 6s 16 20 mph 1014.7mb 60f 55f
10:50 5ft 13s 6s 16 20 mph 1014.9mb 60f 56f
9:50 5.5ft 9s 6s 16 22 mph 1014.8mb 60f 56f
8:50 6ft 14s 6s 18 22 mph 1014.1mb 60f 56f
7:50 6ft 9s 6s 18 22 mph 1013.6mb 60f 56f
6:50 5ft 12s 6s 18 20 mph 1013.3mb 60f 57f
5:50 5.5ft 9s 6s 18 22 mph 1013.4mb 60f 57f
4:50 5.5ft 13s 6s 20 22 mph 1013.6mb 60f 57f
3:50 5ft 9s 6s 18 20 mph 1014mb 60f 57f
2:50 5ft 9s 6s 18 20 mph 1014.2mb 60f 57f
1:50 5ft 9s 6s 18 22 mph 1014.4mb 60f 57f
12:50 4.5ft 12s 6s 16 20 mph 1014.4mb 60f 56f
11:50 5ft 14s 6s 16 18 mph 1014.6mb 60f 56f
10:50 5ft 9s 6s 16 18 mph 1014.3mb 59f 56f
9:50 4.5ft 9s 5s 16 20 mph 1014.1mb 60f 56f
8:50 5.5ft 9s 6s 18 20 mph 1013.5mb 60f 56f
7:50 6ft 9s 6s 18 20 mph 1013mb 60f 56f
6:50 5ft 8s 6s 13 18 mph 1012.7mb 60f 56f
5:50 5.5ft 9s 6s 16 18 mph 1012.1mb 60f 56f
4:50 5ft 9s 6s 16 18 mph 1011.7mb 60f 56f
3:50 5.5ft 9s 6s 16 20 mph 1011.6mb 60f 56f
2:50 5.5ft 8s 6s 18 20 mph 1011.5mb 60f 56f
1:50 5ft 9s 5s 18 22 mph 1011.5mb 60f 56f
12:50 5ft 8s 5s 18 22 mph 1011.9mb 60f 56f
sáb 05/20 11:50 5ft 9s  -  18 20 mph 1011.8mb 60f 56f
10:50 5ft 8s 6s 18 22 mph 1012mb 60f 55f
9:50 5ft 5s 5s 18 20 mph 1012.1mb 60f 55f
8:50 5ft 8s 5s 20 25 mph 1011.3mb 60f 56f
7:50 5ft 8s 5s 16 20 mph 1011.1mb 60f 56f
6:50 5ft 8s 5s 20 25 mph 1011mb 60f 56f
5:50 5ft 8s 5s 20 22 mph 1011.1mb 59f 56f
4:50 5ft 15s 6s 18 20 mph 1011.5mb 59f 57f
3:50 5ft 15s 6s 16 18 mph 1012.2mb 59f 56f
2:50 4.5ft 15s 6s 16 18 mph 1012.6mb 59f 56f
1:50 5ft 9s 5s 16 18 mph 1013mb 59f 56f
12:50 4.5ft 9s 5s 18 20 mph 1013.3mb 60f 56f
11:50 4.5ft 8s 5s 18 20 mph 1013.5mb 60f 56f
10:50 4.5ft 9s 6s 18 22 mph 1013.3mb 60f 55f
9:50 4.5ft 8s 6s 16 20 mph 1013.7mb 60f 55f
8:50 4.5ft 8s 6s 16 18 mph 1013.5mb 60f 55f
7:50 4.5ft 8s 7s 16 18 mph 1013.2mb 60f 55f
6:50 4.5ft 10s 7s 16 18 mph 1012.8mb 60f 56f
5:50 5ft 9s 7s 11 13 mph 1012.4mb 60f 58f
4:50 5ft 9s 8s 9 11 mph 1012.2mb 60f 58f
3:50 4.5ft 9s 8s 7 9 mph 1012.2mb 60f 58f
2:50 4.5ft 9s 7s 4 7 mph 1012.4mb 60f 59f
1:50 4.5ft 8s 7s 7 7 mph 1012.7mb 60f 59f
12:50 5ft 8s 7s 4 7 mph 1013.2mb 60f 60f